www.pogodaiklimat.ru

Погода и климат >> Архив погоды >> Пакистан >> Саргодха


ПОГОДА в Саргодхе

  • Прогноз погоды в Саргодхе
  • Монитор погоды в Саргодхе

АРХИВ ПОГОДЫ в Саргодхе

Время (UTC), дата Ветер
(напр.,м/с)
 
Видим.   Явления Облачность Т
(С)
Тd
(С)
f
(%)
Тe
(С)
Тes
(С)
Комфортность P
(гПа)
Po
(гПа)
Тmin
(С)
Tmax
(С)
R
(мм)
R24
(мм)
S
(см)
12 9.09 ЮЗ 2 4000 м мгла 1/1 1200 м
[Cu hum]
+38.5 +27.8 55 +58 +60 опасность
перегрева
994.1 973.9 +39.4
15 9.09 штиль 0 4000 м мгла ясно +35.0 +27.6 66 +55 +55 опасность
перегрева
993.7 973.3
18 9.09 штиль 0 4000 м мгла ясно +33.5 +28.1 73 +54 +54 опасность
перегрева
995.0 974.5
21 9.09 штиль 0 4000 м мгла ясно +32.5 +27.8 76 +52 +52 опасность
перегрева
995.7 975.1
00 10.09 штиль 0 4000 м мгла ясно +30.5 +27.1 82 +48 +48 опасность
перегрева
995.7 975.0
03 10.09 штиль 0 4000 м мгла ясно +31.5 +27.4 79 +50 +56 опасность
перегрева
997.2 976.5 +30.0
06 10.09 Ю 2 4000 м мгла ясно +36.0 +27.2 61 +55 +70 опасность
перегрева
997.5 977.1
09 10.09 ЮЗ 2 4000 м мгла 4/4 1200 м
[Cu hum]
+39.0 +26.6 50 +55 +63 опасность
перегрева
995.3 975.1
12 10.09 ЮЗ 2 4000 м мгла ясно +39.5 +26.6 48 +55 +57 опасность
перегрева
993.7 973.6 +40.0
15 10.09 штиль 0 4000 м мгла ясно +36.0 +26.4 58 +53 +53 опасность
перегрева
993.9 973.6
18 10.09 штиль 0 4000 м мгла ясно +33.0 +26.1 67 +49 +49 опасность
перегрева
995.7 975.1
21 10.09 штиль 0 4000 м мгла ясно +31.5 +26.7 76 +49 +49 опасность
перегрева
996.7 976.0
00 11.09 штиль 0 4000 м мгла ясно +30.0 +26.5 82 +46 +46 опасность
перегрева
997.6 976.8
03 11.09 штиль 0 4000 м мгла ясно +31.5 +27.4 79 +50 +56 опасность
перегрева
998.8 978.1 +29.5
06 11.09 В 1 4000 м мгла ясно +37.0 +26.8 56 +54 +72 опасность
перегрева
998.3 977.9
09 11.09 В 1 4000 м мгла 1/1 1200 м
[Cu hum]
+38.5 +27.0 52 +56 +70 опасность
перегрева
995.9 975.7
12 11.09 СВ 1 4000 м мгла ясно +38.5 +27.0 52 +56 +58 опасность
перегрева
994.5 974.3 +40.0
18 11.09 штиль 0 4000 м мгла ясно +33.5 +27.4 71 +53 +53 опасность
перегрева
997.2 976.6
21 11.09 штиль 0 4000 м мгла ясно +32.0 +26.5 73 +49 +49 опасность
перегрева
997.0 976.3
00 12.09 В 1 4000 м мгла ясно +30.5 +27.1 82 +48 +48 опасность
перегрева
997.3 976.5
03 12.09 В 1 4000 м мгла ясно +32.5 +27.8 76 +52 +57 опасность
перегрева
999.0 978.3 +29.8
06 12.09 ЮВ 1 4000 м мгла ясно +37.5 +27.4 57 +56 +74 опасность
перегрева
998.9 978.6
09 12.09 С 1 4000 м мгла 1/0
[Ac trans]
+39.5 +28.9 55 +61 +76 опасность
перегрева
997.0 976.8
12 12.09 В 1 4000 м мгла ясно +37.5 +27.4 57 +56 +58 опасность
перегрева
995.7 975.4 +40.0
15 12.09 ЮВ 1 4000 м мгла ясно +34.5 +27.2 66 +53 +53 опасность
перегрева
996.7 976.2
00 13.09 В 2 4000 м мгла ясно +30.0 +27.3 85 +48 +48 опасность
перегрева
999.4 978.6
03 13.09 СВ 1 4000 м мгла ясно +31.0 +28.3 86 +52 +57 опасность
перегрева
1000.6 979.8 +29.3
06 13.09 В 2 10 км 4/0
[Ac trans]
+35.0 +28.3 68 +56 +68 опасность
перегрева
1000.1 979.6
09 13.09 В 1 10 км 4/0
[Ac trans]
+37.5 +28.1 59 +58 +70 опасность
перегрева
998.9 978.6
12 13.09 В 2 10 км 6/3 1200 м
[Sc Ac trans]
+36.0 +27.9 63 +56 +57 опасность
перегрева
997.9 977.5 +38.5
15 13.09 В 1 4000 м мгла 3/0
[Ac trans]
+33.0 +27.6 73 +52 +52 опасность
перегрева
997.6 977.0
18 13.09 В 1 4000 м мгла 3/0
[Ac trans]
+31.0 +26.9 79 +48 +48 опасность
перегрева
998.7 977.9
21 13.09 В 1 4000 м мгла 3/0
[Ac trans]
+29.0 +26.2 85 +44 +44 опасность
перегрева
999.5 978.6
00 14.09 В 2 4000 м мгла 6/3 1200 м
[Sc Ac trans]
+29.0 +26.2 85 +44 +44 опасность
перегрева
999.4 978.5
03 14.09 В 1 4000 м мгла 10/5 1200 м
[Sc As op]
+29.5 +27.5 89 +48 +48 опасность
перегрева
1001.3 980.4 +28.5
06 14.09 В 1 4000 м мгла 6/3 1200 м
[Sc Ac trans]
+34.0 +28.6 74 +57 +66 опасность
перегрева
1001.3 980.7
09 14.09 В 1 4000 м мгла 8/4 1200 м
[Sc Ac trans]
+36.5 +29.2 66 +60 +66 опасность
перегрева
1000.7 980.3
12 14.09 В 2 4000 м гроза с градом {снег} 10/6 1050 м
[Cb cap As op]
+31.0 +25.4 72 +45 +45 опасность
перегрева
1000.8 980.0 +38.5 0.3
15 14.09 В 1 4000 м мгла 3/0
[Ac trans]
+28.0 +23.7 77 +38 +38 очень
душно
1000.3 979.3 0.2
18 14.09 штиль 0 4000 м мгла ясно +27.0 +23.4 81 +37 +37 очень
душно
1000.9 979.8
21 14.09 штиль 0 4000 м мгла ясно +26.5 +23.6 84 +36 +36 очень
душно
1001.5 980.4
00 15.09 штиль 0 4000 м мгла ясно +26.5 +23.6 84 +36 +36 очень
душно
1001.8 980.7
03 15.09 штиль 0 4000 м мгла ясно +29.5 +26.7 85 +46 +51 опасность
перегрева
1002.3 981.4 +26.0
06 15.09 ЮВ 1 4000 м мгла 1/1 1200 м
[Cu hum]
+33.5 +28.1 73 +54 +70 опасность
перегрева
1003.4 982.7
09 15.09 ЮЗ 2 4000 м мгла 4/4 1200 м
[Cu hum]
+37.0 +27.6 59 +56 +64 опасность
перегрева
1000.9 980.5
12 15.09 ЮЗ 1 4000 м мгла ясно +38.0 +27.9 57 +58 +60 опасность
перегрева
999.0 978.7 +38.5
18 15.09 штиль 0 4000 м мгла ясно +32.0 +25.8 70 +47 +47 опасность
перегрева
999.9 979.2
21 15.09 штиль 0 4000 м мгла ясно +30.5 +26.4 79 +47 +47 опасность
перегрева
1000.7 979.9
00 16.09 штиль 0 4000 м мгла ясно +29.5 +26.0 81 +44 +44 опасность
перегрева
999.7 978.8
06 16.09 СВ 1 4000 м мгла 3/0
[Ac trans]
+32.5 +24.0 61 +44 +59 опасность
перегрева
1001.3 980.6
09 16.09 В 1 4000 м мгла 1/0
[Ac trans]
+36.0 +27.9 63 +56 +70 опасность
перегрева
998.0 977.6

 

Местоположение метеостанции Саргодха (Пакистан): широта 32.05 долгота 72.67 высота над уровнем моря 187 м.

В архиве по умолчанию представлена погода в Саргодхе за последнюю неделю. Архивные данные за месяц целиком и за предыдущие месяцы, начиная с января 2011 года, Вы можете получить, выбрав интересующий диапазон дат из раскрывающегося списка и нажав кнопку "Ввод!".


*Определитесь, кто Вы:
робот инопланетянин человек

Внимание! Время в таблицах - всемирное. Для получения местного времени необходимо прибавить поправку, которая равна 5 ч.

Смотрите также архив погоды в соседних городах и на ближайших метеорологических станциях:

Погода в Джаухарабаде (Пакистан) (55 км)
Погода в Нур Пур Тал (Пакистан) (75 км)
Погода в Фейсалабаде (Пакистан) (80 км)
Погода в Хафизабаде (Пакистан) (92 км)
Погода в Джанге (Пакистан) (93 км)
Погода в Чаквале (Пакистан) (98 км)
Погода в Тоба Тек Сингх (Пакистан) (121 км)
Погода в Мианвали (Пакистан) (122 км)
Погода в Гуджранвале (Пакистан) (138 км)
Погода в Сиалкот аэропорту (Пакистан) (139 км)

Пояснения к столбцам:

Ветер - указаны скорость ветра в м/с - средняя за 10 мин, порывы в срок и между сроками (в фигурных скобках) и направление, откуда дует ветер: С - северный, СВ - северо-восточный, В - восточный, ЮВ - юго-восточный, Ю - южный, ЮЗ - юго-западный, З - западный, СЗ - северо-западный.
Видимость - горизонтальная дальность видимости в метрах или километрах. При видимости от 1 до 10 км при отсутствии осадков обычно наблюдается дымка, при ухудшении видимости до 1 км и менее - туман. В сухую погоду видимость может ухудшаться дымом, пылью или мглою.
Явления - указаны атмосферные явления, наблюдавшиеся в срок или в последний час перед сроком; фигурными скобками обозначены явления, наблюдавшиеся между сроками (за 1-3 часа до срока); квадратными скобками обозначены град или гололедные отложения с указанием их диаметра в мм.
Облачность - указаны через наклонную черту общая и нижняя облачность в баллах и высота нижней границы облаков в метрах; квадратными скобками обозначены формы облаков: Ci - перистые, Cs - перисто-слоистые, Cc - перисто-кучевые, Ac - высококучевые, As - высокослоистые, Sc - слоисто-кучевые, Ns - слоисто-дождевые, Cu - кучевые, Cb - кучево-дождевые. Подробнее классификацию облаков см. в Атласе облаков (PDF).
T - Температура воздуха - температура, измеренная на высоте 2 м над землей.
Td - Температура точки росы - температура, при понижении до которой содержащийся в воздухе водяной пар достигнет насыщения.
f - Относительная влажность воздуха - влажноcть воздуха, измеренная на высоте 2 м над землей.
Te - Эффективная температура - температура, которую ощущает одетый по сезону человек в тени. Характеристика душности погоды. При расчете учитывается влияние влажности воздуха и скорости ветра на теплоощущения человека.
Tes - Эффективная температура на солнце - температура, которую ощущает человек, с поправкой на солнечный нагрев. Характеристика знойности погоды. Зависит от высоты солнца над горизонтом, облачности и скорости ветра. Ночью, в пасмурную погоду, а также при ветре 12 м/с и более поправка равна нулю.
P - Атмосферное давление - приведенное к уровню моря атмосферное давление.
Po - Атмосферное давление - измеренное на уровне метеостанции атмосферное давление.
Tmin - Минимальная температура - минимум температуры воздуха на высоте 2 м над землей.
Tmax - Максимальная температура - максимум температуры воздуха на высоте 2 м над землей.
R - Количество осадков - Количество выпавших осадков за период времени, мм. При наведении курсора мыши на число - период времени, за который выпало указанное количество осадков.
R24 - Количество осадков - Количество выпавших осадков за 24 часа, мм.
S - Снежный покров - Высота снежного покрова, см. При наведении курсора мыши на число - состояние снежного покрова и степень покрытия местности в баллах.